Theta_e
299 293 289 294 295 288 287 287 285 288 292 290 289 290 293 295 294 297 299 301 301 301 305 304 304 305 307 313 318 319 317 319 321 324 323 321 322 322 323 324 325 323 324 323
290 287 292 296 297 291 289 285 285 289 292 291 289 288 291 294 293 295 296 297 298 301 303 301 302 303 305 307 311 317 319 318 321 322 323 322 323 324 324 323 322 322 323 323
284 285 294 294 293 291 288 286 286 286 290 288 284 281 285 289 290 293 295 297 298 299 299 300 299 299 300 302 305 312 317 318 320 322 319 317 317 315 316 317 319 320 322 322
289 292 291 290 289 291 286 292 293 290 286 279 284 274 282 287 288 289 290 290 293 294 296 298 298 297 297 300 301 304 315 316 318 319 318 317 318 315 315 316 318 319 320 320
283 288 288 287 288 293 287 293 292 290 284 281 279 278 281 285 286 288 289 290 289 290 292 294 295 297 297 299 303 306 313 316 317 318 319 317 315 316 317 317 317 317 317 319
284 289 290 290 292 294 292 288 287 284 282 274 280 279 277 282 285 286 286 288 290 290 289 290 293 295 297 301 300 302 303 304 314 315 316 316 315 315 315 315 315 316 316 316
282 285 288 291 289 291 289 285 275 276 276 273 278 279 280 286 289 288 289 289 289 292 290 294 296 297 297 296 295 297 297 297 299 303 308 313 314 315 315 315 315 315 315 314
277 275 285 289 289 287 286 286 278 271 273 274 280 276 281 288 288 288 289 289 291 291 293 294 293 293 293 294 294 295 296 296 297 298 298 299 301 302 303 306 310 314 315 317
278 278 286 288 290 291 287 283 286 278 268 272 276 279 284 287 287 287 288 289 290 293 294 292 291 292 292 294 294 295 295 296 297 297 297 298 298 298 298 299 301 306 310 315
283 279 284 287 289 289 288 290 282 278 268 267 274 275 279 282 285 286 287 287 289 291 293 291 291 292 292 293 294 294 295 296 296 297 297 298 298 298 299 300 300 300 301 302
285 282 280 286 284 284 285 282 284 284 280 273 270 274 280 283 284 284 286 288 290 291 291 290 291 292 293 293 293 294 295 295 296 296 296 296 297 298 298 299 299 299 300 300
289 285 280 279 284 287 289 285 285 280 275 277 277 278 284 284 285 285 287 288 290 290 290 289 290 291 292 292 293 294 295 295 295 296 296 296 296 296 296 297 297 298 298 299
289 284 278 280 282 284 284 286 288 283 281 278 274 279 285 284 285 285 285 286 289 290 288 288 288 291 291 291 292 293 294 295 295 295 295 294 294 294 294 295 295 296 296 296
293 284 281 277 278 282 281 285 286 286 278 281 280 282 281 283 285 285 285 286 287 288 287 288 289 291 291 291 291 293 293 294 295 294 294 293 292 293 293 293 293 293 294 294
290 282 283 284 282 282 283 284 285 284 285 281 283 283 286 288 288 286 286 286 285 288 288 288 289 290 291 291 290 292 293 294 294 293 292 291 292 292 291 290 290 290 291 291
289 282 283 281 285 283 282 284 285 286 286 285 286 284 290 288 287 286 288 288 287 287 288 289 289 290 290 290 290 292 292 292 292 291 290 290 289 288 288 287 287 287 288 290
287 285 282 279 283 283 278 282 283 285 287 286 282 287 292 288 288 290 291 289 288 289 289 288 289 291 292 290 291 292 292 291 290 288 287 287 286 285 285 285 285 285 286 288
284 285 283 280 279 273 283 287 287 285 286 288 289 288 289 290 292 293 292 290 290 292 293 291 291 291 291 291 289 290 290 288 286 285 285 284 284 284 283 283 283 283 285 288
287 284 281 278 277 280 280 282 284 283 283 289 288 290 291 292 291 290 291 292 294 294 294 294 295 291 291 289 289 288 286 285 284 284 284 283 282 282 282 281 282 282 284 286
287 287 282 279 275 272 282 287 287 287 280 288 290 290 290 289 284 288 293 294 293 293 294 293 292 289 288 288 288 286 284 283 283 283 283 282 282 281 280 281 281 282 282 285
280 282 279 279 277 280 283 283 287 278 281 290 289 290 289 287 290 293 290 289 290 290 291 290 288 288 288 286 286 285 283 283 283 282 281 281 281 280 280 280 281 281 282 284
277 278 279 280 278 275 286 284 282 287 288 287 287 289 289 291 291 290 291 290 288 288 288 288 286 285 283 284 284 282 282 282 281 280 279 278 278 279 280 278 279 280 282 284
276 282 280 281 280 287 286 286 288 287 287 287 286 287 288 287 287 287 288 289 290 287 286 285 284 282 281 281 281 281 280 279 278 276 273 274 276 278 279 277 278 279 280 283
281 284 281 281 285 287 289 289 289 289 288 290 289 287 287 287 286 285 285 286 286 284 285 280 280 280 277 275 277 277 276 276 270 268 271 274 274 275 276 278 278 278 279 281
279 282 282 280 283 284 286 288 290 288 289 288 288 286 287 286 287 286 286 284 285 283 281 279 281 278 275 273 273 270 272 271 269 269 271 271 272 271 273 275 276 277 279 281
280 280 279 279 284 284 286 287 287 287 287 287 286 285 284 284 285 285 283 280 278 277 274 275 274 274 270 270 269 267 266 267 265 267 269 269 269 268 270 271 272 277 280 282
Wind_Speed
3 2 7 9 3 3 2 2 3 3 3 3 5 6 13 8 4 8 10 10 10 12 14 9 8 8 7 7 8 11 11 14 10 8 7 5 9 8 7 8 10 9 8 8
5 6 2 4 4 3 3 1 4 3 3 3 7 10 12 11 7 10 13 13 14 12 13 7 8 8 7 8 9 8 12 10 12 9 8 4 5 7 7 5 7 9 10 10
5 2 2 6 4 5 3 4 3 2 5 2 6 8 6 8 3 6 9 15 14 15 12 12 8 9 8 9 9 8 10 10 11 11 4 3 3 1 3 3 5 8 9 9
6 3 5 3 3 6 4 7 6 1 5 3 4 8 7 9 12 6 12 11 12 11 10 12 9 7 8 9 5 8 7 8 8 9 8 8 7 6 4 4 4 5 8 9
7 3 4 4 5 7 5 3 5 4 3 3 2 2 9 4 9 14 5 6 8 10 10 12 8 8 7 4 4 3 5 6 7 9 9 7 5 3 2 2 5 5 5 8
4 2 3 6 4 11 7 6 6 4 3 2 7 7 5 5 10 6 1 5 6 9 9 8 5 5 5 3 4 6 8 5 4 5 6 7 7 5 3 2 3 3 3 4
3 5 2 3 3 2 2 7 2 3 1 8 2 3 7 10 15 7 11 10 9 7 2 5 7 7 7 7 6 6 8 7 7 8 5 4 4 3 4 4 3 4 3 3
7 6 10 7 7 7 6 6 7 8 5 4 2 9 8 8 9 10 9 8 7 3 1 4 5 6 8 7 6 7 7 7 7 7 6 5 4 2 1 2 2 3 3 4
6 6 3 4 5 9 6 8 7 6 3 3 5 8 9 10 12 9 9 5 4 6 5 6 5 6 7 7 8 8 8 7 6 6 5 5 4 3 1 2 2 2 4 3
5 2 3 3 2 2 6 7 3 2 2 5 6 6 8 7 8 8 10 4 2 3 5 4 4 5 4 5 5 6 7 7 5 5 4 4 3 3 2 1 2 3 3 3
4 4 3 4 8 12 4 4 3 5 6 6 3 8 8 10 5 9 10 6 7 7 7 5 5 3 5 4 5 5 6 7 5 4 3 3 2 3 3 2 3 3 4 4
9 1 6 10 3 3 8 8 10 6 6 4 1 12 5 8 6 6 9 6 5 6 8 6 5 5 5 5 5 5 5 6 5 4 3 3 3 3 4 4 5 6 6 5
12 5 4 2 1 3 9 9 10 4 3 9 5 11 1 5 7 4 7 7 7 9 8 7 6 7 7 5 6 6 5 5 4 3 2 3 3 3 3 4 4 5 6 6
16 6 9 14 5 7 9 18 15 17 6 19 12 23 3 5 7 6 7 6 7 6 5 5 6 7 6 6 7 6 6 5 5 3 1 1 1 2 3 4 4 4 5 5
9 8 11 15 3 3 6 17 18 17 22 13 25 22 21 14 16 6 6 4 3 6 7 8 8 7 7 7 7 6 5 6 4 3 3 3 2 2 3 4 4 4 4 4
8 10 7 11 16 11 5 9 16 24 28 15 26 25 11 6 4 6 11 9 8 9 9 9 9 10 10 9 8 8 8 7 6 5 4 3 3 4 4 5 5 5 5 5
13 7 8 20 15 13 13 21 19 17 21 19 25 34 22 6 8 18 16 8 9 10 12 11 13 12 12 10 10 11 9 6 6 4 3 3 2 4 5 5 5 6 6 7
7 16 9 10 3 15 9 10 20 22 20 24 25 13 10 14 16 16 8 9 11 15 16 10 12 13 12 9 7 7 8 7 7 6 5 4 3 4 4 4 5 5 5 7
16 9 9 13 14 14 7 7 17 17 28 24 18 25 26 20 13 14 9 12 18 15 13 15 12 9 9 9 7 8 8 7 7 7 6 4 4 4 4 4 5 5 6 7
18 18 12 9 12 19 25 28 10 4 16 14 25 28 23 8 10 19 9 15 14 14 14 12 9 6 8 8 9 10 8 8 7 6 4 3 1 3 5 5 6 4 6 8
8 14 21 21 17 15 9 5 13 17 10 19 15 20 18 14 17 16 1 5 6 8 11 7 6 8 8 7 9 9 7 7 6 5 1 2 3 4 5 5 4 5 7 9
16 10 7 12 20 14 4 4 9 9 5 8 8 15 18 17 16 11 11 12 8 11 8 7 7 6 5 7 8 8 8 6 6 4 1 1 3 4 4 4 5 6 7 10
9 12 12 10 6 9 6 5 4 6 6 7 7 8 7 7 7 7 11 11 12 11 9 6 7 7 6 6 5 8 6 6 5 4 1 2 4 5 6 6 7 7 6 7
5 4 5 1 7 9 12 11 8 11 14 12 9 9 8 10 8 10 9 10 9 7 8 5 9 10 7 4 4 5 6 5 4 2 3 4 4 5 5 5 5 7 7 7
5 5 6 5 6 6 10 12 13 4 8 10 12 5 10 7 11 12 12 9 9 6 5 6 10 8 7 5 6 4 5 4 2 1 2 4 3 4 5 6 7 8 9 10
5 8 6 8 10 7 11 8 5 8 9 9 6 7 2 5 12 9 11 4 3 4 2 6 5 9 5 5 4 4 4 4 3 2 2 3 4 2 4 6 9 13 21 24
Wind_Direction
3 115 210 197 103 115 120 184 233 262 317 329 255 255 277 276 272 258 266 265 254 241 255 238 240 239 223 229 213 210 197 205 184 186 185 197 214 213 219 218 216 208 212 206
39 236 316 145 141 127 124 154 243 271 304 337 310 285 270 263 227 223 240 251 250 260 267 240 226 227 222 223 216 210 211 197 195 191 201 183 185 218 223 205 204 207 210 212
168 183 209 167 161 177 195 191 210 250 337 341 334 284 269 286 229 240 246 244 253 246 254 262 229 226 238 244 228 213 210 194 196 194 148 111 92 85 156 196 209 215 214 216
237 238 147 192 198 141 225 201 211 242 30 252 31 287 309 287 296 232 256 236 251 251 247 250 254 244 225 239 233 232 198 186 181 162 171 182 194 206 199 182 187 196 197 209
242 164 178 171 189 165 231 139 162 148 173 5 352 298 268 343 297 278 261 272 260 251 243 253 241 236 241 208 190 194 171 167 167 175 179 183 190 211 168 184 199 209 202 211
223 291 186 206 186 177 160 87 56 56 104 311 205 179 248 215 224 287 162 328 315 312 265 250 269 195 150 150 116 108 104 81 116 160 156 170 195 213 230 228 243 248 227 217
343 235 259 178 105 81 140 108 7 340 330 233 92 197 248 275 264 251 286 298 312 331 313 152 141 138 136 137 122 113 102 87 87 96 108 162 202 214 244 265 243 263 258 242
154 290 170 191 183 176 186 166 165 204 202 266 79 238 253 243 289 269 270 276 285 12 233 146 141 130 130 131 118 105 105 100 89 86 83 77 87 114 223 272 274 262 250 251
161 260 198 190 168 148 193 220 155 105 54 33 233 286 291 284 277 287 293 292 218 158 182 172 158 154 149 139 137 132 119 104 93 101 108 96 88 91 141 292 275 273 284 281
208 277 190 181 120 247 171 158 101 30 173 268 256 262 239 294 262 297 296 315 257 198 182 192 190 172 157 136 127 121 124 123 113 100 84 78 65 41 24 10 344 312 297 284
163 169 317 115 214 177 150 192 193 143 171 198 255 257 220 240 261 272 280 273 216 199 197 197 205 205 161 144 146 135 122 125 123 118 114 92 53 29 4 12 3 345 328 326
199 125 205 209 265 272 229 209 178 182 211 233 189 253 228 229 244 239 277 323 235 207 202 217 218 202 191 180 166 165 157 148 154 141 118 86 61 42 26 355 350 346 333 327
168 213 213 194 359 349 218 211 213 105 99 207 164 261 261 246 269 295 281 285 235 214 207 223 223 214 213 201 197 193 181 169 152 131 118 67 22 17 354 338 345 337 327 323
174 174 206 221 203 149 205 208 201 203 204 236 227 248 304 290 285 318 307 283 256 239 214 238 236 231 232 225 213 208 205 184 166 162 111 180 257 293 296 321 330 327 318 312
197 222 220 238 285 205 206 209 209 212 227 216 243 247 243 249 265 279 278 288 203 186 230 233 228 237 239 235 223 219 213 191 167 180 216 241 252 280 325 325 320 310 305 300
200 239 205 249 230 222 195 215 213 211 229 237 253 260 233 244 205 257 235 222 227 246 239 240 238 233 237 227 217 207 203 197 170 190 224 258 298 325 327 318 314 306 293 279
200 216 214 243 220 224 236 212 215 221 227 218 236 241 253 232 226 238 244 226 238 245 248 228 224 229 231 221 206 208 198 159 173 195 214 225 271 296 305 304 306 299 295 295
260 207 215 245 210 216 226 195 220 226 225 222 240 250 236 230 235 251 227 221 231 241 251 237 234 236 232 237 202 161 153 165 170 193 206 199 206 262 274 277 278 283 282 289
225 245 238 244 242 277 304 215 203 201 238 224 222 244 248 259 276 269 213 216 232 241 245 242 244 228 225 217 192 158 163 164 172 188 196 191 204 251 264 264 263 257 265 272
223 214 232 224 240 249 246 242 216 145 252 189 214 238 245 236 258 264 242 223 235 233 244 249 245 206 212 212 169 163 172 173 186 186 192 225 277 288 289 273 270 247 247 278
239 217 220 226 233 245 264 322 137 190 224 233 204 227 239 222 230 257 216 226 228 230 237 241 224 227 217 175 161 170 158 186 170 159 163 326 317 285 268 279 275 283 292 300
234 236 237 236 232 224 181 41 181 211 259 259 185 221 233 242 255 256 252 261 222 237 236 215 216 215 171 151 148 160 178 152 142 137 115 262 273 285 278 266 283 281 289 297
232 213 242 201 206 188 214 184 199 185 221 255 151 228 247 274 266 259 257 246 253 235 229 197 186 163 165 168 170 159 162 149 144 129 266 287 288 291 297 299 302 305 286 291
229 221 229 138 220 227 228 221 206 201 216 245 216 190 186 235 266 262 252 261 261 219 229 179 155 169 165 166 131 122 130 119 97 58 301 289 279 298 289 290 297 285 285 286
191 143 202 260 273 254 274 258 255 248 216 232 262 202 208 199 263 260 265 259 269 242 190 174 175 157 146 141 119 96 93 92 103 231 277 270 275 272 294 279 282 276 269 269
194 197 186 226 231 211 248 255 241 218 229 239 244 297 29 199 250 258 269 285 259 214 141 136 127 118 125 118 112 101 101 120 150 232 225 226 231 244 293 292 288 270 278 279